This is the latest recevied weather packets stored in our database for station/object K0CVS. If no packets are shown the sender has not sent any weather packets the latest 10 day(s).
| Time | Temp. | Humidity | Pressure | Rain* | Wind** | Luminosity | Snow |
|---|---|---|---|---|---|---|---|
| 1777905771 | 20.56° C | 52% | 1004.1 hPa | 0 mm | - | 40 W/m² | - |
| 1777905469 | 20° C | 51% | 1004.1 hPa | 0 mm | - | 44 W/m² | - |
| 1777905166 | 20° C | 53% | 1004.2 hPa | 0 mm | - | 194 W/m² | - |
| 1777904863 | 20° C | 53% | 1004.2 hPa | 0 mm | - | 143 W/m² | - |
| 1777904560 | 19.44° C | 53% | 1004.3 hPa | 0 mm | - | 43 W/m² | - |
| 1777904257 | 19.44° C | 53% | 1004.4 hPa | 0 mm | - | 52 W/m² | - |
| 1777903955 | 19.44° C | 53% | 1004.3 hPa | 0 mm | - | 52 W/m² | - |
| 1777903651 | 19.44° C | 53% | 1004.5 hPa | 0 mm | - | 68 W/m² | - |
| 1777903347 | 19.44° C | 53% | 1004.3 hPa | 0 mm | - | 62 W/m² | - |
| 1777903044 | 19.44° C | 53% | 1004.5 hPa | 0 mm | - | 61 W/m² | - |
| 1777902740 | 19.44° C | 53% | 1004.4 hPa | 0 mm | - | 87 W/m² | - |
| 1777902438 | 19.44° C | 53% | 1004.2 hPa | 0 mm | - | 56 W/m² | - |
| 1777902134 | 18.89° C | 54% | 1004.3 hPa | 0 mm | - | 52 W/m² | - |
| 1777901833 | 18.89° C | 53% | 1004.3 hPa | 0 mm | - | 63 W/m² | - |
| 1777901530 | 18.89° C | 53% | 1004.3 hPa | 0 mm | - | 60 W/m² | - |
| 1777901227 | 19.44° C | 52% | 1004.3 hPa | 0 mm | - | 56 W/m² | - |
| 1777900924 | 19.44° C | 52% | 1004 hPa | 0 mm | - | 55 W/m² | - |
| 1777900621 | 18.89° C | 53% | 1004 hPa | 0 mm | - | 53 W/m² | - |
| 1777900318 | 18.89° C | 53% | 1003.9 hPa | 0 mm | - | 95 W/m² | - |
| 1777900015 | 19.44° C | 53% | 1004 hPa | 0 mm | - | 31 W/m² | - |
| 1777899711 | 18.89° C | 52% | 1004 hPa | 0 mm | - | 99 W/m² | - |
| 1777899409 | 18.33° C | 54% | 1004.2 hPa | 0 mm | - | 119 W/m² | - |
| 1777899107 | 18.33° C | 54% | 1003.9 hPa | 0 mm | - | 85 W/m² | - |
| 1777898804 | 17.78° C | 54% | 1004.2 hPa | 0 mm | - | 30 W/m² | - |
| 1777898502 | 17.78° C | 55% | 1004.1 hPa | 0 mm | - | 24 W/m² | - |
* Rain latest hour (hover to see other rain measurements)
** Current wind speed in m/s (hover to see current wind gust speed)